Theta_e
294 288 286 290 292 292 291 290 291 295 298 295 294 295 299 301 302 303 304 305 306 308 311 313 315 314 314 320 346 344 342 342 345 344 339 341 333 337 336 340 344 342 345 343
289 286 292 294 293 291 289 287 289 294 298 294 292 293 297 300 301 303 304 305 305 306 309 311 312 315 316 315 342 343 343 342 344 344 344 342 345 339 339 339 345 342 344 342
287 291 296 294 291 290 288 287 287 287 291 293 291 290 294 298 300 304 306 306 306 306 306 310 314 312 315 320 334 347 344 343 346 346 342 344 344 341 340 340 343 342 343 342
290 294 294 291 290 291 285 291 290 289 286 280 292 281 290 295 297 301 304 304 303 303 306 307 310 310 314 321 335 349 350 345 346 348 344 344 341 341 340 341 345 342 343 342
289 292 291 290 291 293 288 293 291 289 286 284 285 283 286 294 294 298 301 303 302 304 305 306 307 309 310 320 322 339 352 348 348 349 345 346 343 342 344 341 344 343 343 343
292 297 294 292 295 295 295 291 290 288 285 278 284 283 283 288 293 297 300 303 305 305 305 306 307 309 310 313 318 325 345 351 350 350 347 345 345 343 343 341 342 346 346 345
290 291 295 297 291 293 291 287 277 274 276 276 286 283 284 292 297 299 301 302 304 304 306 307 307 309 311 309 314 316 343 347 351 350 349 346 345 345 342 343 342 344 347 346
282 280 291 295 292 289 289 287 280 274 275 279 287 282 285 296 299 302 306 303 304 305 306 308 309 310 311 312 310 317 325 346 349 349 349 350 346 346 346 345 345 346 347 347
282 283 294 295 296 294 290 286 291 280 284 279 282 287 293 299 300 302 302 307 304 305 308 306 309 309 311 312 312 314 318 344 346 347 350 350 350 347 348 347 347 346 347 348
289 282 292 294 295 296 294 294 282 282 275 275 283 285 286 293 296 300 299 302 306 308 307 308 308 312 313 311 313 312 319 333 345 348 348 351 351 351 349 350 347 346 347 348
291 286 287 291 290 288 291 289 289 289 286 279 279 284 296 294 299 300 299 303 303 307 307 309 310 312 313 313 313 312 319 325 345 348 349 350 351 351 351 348 346 347 348 349
292 289 282 285 292 297 294 290 288 284 283 285 283 284 298 298 300 302 302 305 307 308 308 308 307 308 310 311 314 314 318 320 343 349 349 350 350 350 348 348 338 337 344 348
293 284 280 282 289 295 289 291 292 290 288 284 282 285 298 298 297 299 301 303 303 308 309 309 308 308 311 314 318 318 318 321 324 349 350 350 349 348 347 339 333 332 332 332
296 288 283 279 284 289 288 289 292 290 285 285 285 286 290 292 292 294 297 299 301 304 307 308 309 311 314 317 319 320 320 322 324 333 345 345 347 344 339 337 333 331 329 328
292 284 287 289 290 290 290 288 288 286 287 283 285 285 289 290 291 293 295 296 297 301 303 308 308 310 312 315 317 319 321 321 322 325 327 343 343 343 336 335 334 333 333 331
294 286 287 285 290 291 289 288 287 286 287 286 286 286 291 292 292 291 292 293 295 299 303 304 306 307 309 312 314 316 317 320 321 321 323 328 341 341 337 335 334 335 333 331
292 288 287 282 288 289 284 286 287 287 288 287 282 286 290 289 289 290 292 291 292 296 298 299 301 303 305 307 310 310 312 316 320 322 325 327 337 339 338 336 333 332 329 324
290 290 287 282 284 276 287 292 290 288 288 289 289 289 289 289 290 292 293 290 291 293 295 298 300 301 302 303 306 309 310 313 316 321 324 328 336 335 336 331 328 330 326 324
294 288 283 282 276 285 287 289 287 285 286 290 288 289 289 290 290 291 292 292 291 293 295 298 301 301 302 303 304 307 309 312 316 320 323 328 335 334 335 330 326 325 327 330
296 292 286 283 279 276 284 290 292 291 284 290 289 288 287 288 281 285 290 292 293 295 297 299 300 301 301 302 304 306 307 311 315 322 324 329 328 329 334 333 332 331 330 322
286 283 278 280 282 285 289 290 292 280 281 291 290 290 289 285 286 289 293 293 294 295 297 298 298 299 300 302 305 306 308 310 319 325 326 326 325 325 327 327 323 319 318 317
287 282 278 279 279 276 291 290 283 288 292 291 290 291 291 291 292 293 294 294 293 294 296 297 296 297 301 305 307 310 313 316 319 320 325 322 324 323 321 318 317 316 314 312
282 287 284 285 283 293 292 291 293 294 292 291 291 292 293 293 292 294 292 294 293 293 295 296 295 297 299 303 306 307 310 314 315 316 319 322 322 320 317 314 313 313 312 309
292 295 290 290 293 292 292 293 293 294 293 294 295 294 294 293 294 293 293 293 294 293 294 296 295 296 297 299 303 306 309 312 312 311 313 315 314 314 313 314 313 311 309 308
292 294 292 291 292 291 292 292 293 294 294 294 294 294 293 294 295 295 295 293 294 294 295 296 295 296 297 299 299 302 305 306 304 303 303 303 301 299 295 296 301 309 312 308
295 294 286 285 291 291 291 293 294 294 293 294 293 292 293 294 294 296 296 295 294 295 296 295 295 296 296 298 298 299 301 302 301 301 301 301 300 300 299 298 295 295 300 298
Wind_Speed
8 7 10 16 17 16 17 9 12 13 14 15 19 19 18 20 23 22 22 21 16 14 19 14 10 9 9 8 15 22 19 15 8 6 12 10 12 5 8 8 14 14 10 11
7 7 10 15 16 16 17 15 9 13 14 12 20 21 16 20 18 17 22 21 13 8 13 16 9 9 8 9 17 21 23 20 17 10 9 11 9 9 8 7 12 15 14 13
7 14 11 15 14 14 14 15 12 10 8 11 13 15 10 24 20 20 18 6 4 6 8 5 2 5 6 7 12 21 27 28 25 19 7 4 4 6 7 8 10 12 15 12
8 11 11 9 14 12 13 15 14 16 13 9 3 15 14 18 23 17 18 13 5 3 6 3 4 3 3 7 8 19 22 25 20 18 16 17 15 11 11 7 8 12 14 14
13 19 19 6 8 14 14 9 9 12 16 7 18 6 8 14 21 15 14 15 9 8 7 8 7 8 7 4 8 8 19 21 20 19 22 16 16 13 9 11 10 14 13 14
19 21 5 5 9 10 15 5 12 15 9 10 16 12 11 9 11 16 17 18 17 12 9 9 10 9 9 6 7 9 11 19 18 16 18 20 20 17 11 14 10 11 11 10
15 14 6 12 18 12 10 4 5 6 4 8 7 14 10 12 11 11 15 15 17 9 14 13 13 15 16 9 9 8 14 16 19 20 16 20 20 18 21 16 14 14 10 10
10 13 11 21 17 13 10 0 4 5 4 11 14 6 10 7 6 14 23 13 12 15 13 15 22 20 19 20 11 13 10 15 19 19 19 18 20 14 12 14 12 11 11 11
6 9 22 23 14 9 7 4 9 3 6 3 5 8 3 16 17 23 24 26 16 25 20 9 18 15 20 19 17 11 13 17 19 19 18 17 17 19 16 15 14 11 12 12
4 15 10 14 16 4 4 13 3 2 4 6 6 6 3 16 17 19 20 18 22 24 26 5 1 10 7 6 15 13 16 17 21 22 18 17 19 21 18 10 14 14 15 16
7 2 11 11 5 13 6 4 3 5 3 3 5 5 2 12 4 11 12 16 17 21 18 18 9 6 9 12 13 9 16 18 21 21 20 19 18 20 18 13 9 12 17 17
3 4 6 19 24 7 5 9 5 4 5 5 4 3 20 17 13 15 16 18 20 20 18 17 9 8 8 11 12 14 18 19 20 22 20 19 17 17 15 16 8 3 7 16
2 3 8 7 5 1 5 14 8 8 4 6 3 3 7 10 16 15 15 16 20 20 20 17 13 9 8 8 11 13 13 20 9 21 19 16 15 14 14 12 10 7 7 11
10 4 6 8 15 15 12 22 18 8 4 7 5 18 20 17 18 20 19 19 17 15 20 16 12 9 10 8 10 13 12 14 17 6 14 14 14 12 12 15 16 13 11 10
5 6 7 14 17 19 11 14 18 16 12 6 13 18 15 20 21 19 21 18 21 19 19 16 15 12 14 16 10 13 11 11 14 14 9 17 12 13 14 15 17 19 16 7
2 6 7 15 17 11 4 12 17 18 20 9 14 8 18 18 17 18 20 21 18 18 18 16 14 14 14 15 19 14 14 13 14 15 11 10 15 15 16 17 18 18 17 16
2 3 4 6 15 16 2 8 8 11 13 9 13 15 15 13 15 14 11 15 19 20 18 20 14 12 12 11 14 17 18 14 16 15 13 14 11 13 15 15 15 16 14 14
5 3 1 7 9 3 3 2 10 12 2 8 8 14 17 18 19 15 8 11 16 17 19 17 16 14 10 7 8 15 15 16 15 13 15 12 10 13 13 9 14 14 12 15
7 3 2 4 3 3 1 6 9 6 1 14 13 12 13 15 15 9 12 16 15 18 18 16 13 13 15 10 8 14 18 10 15 13 15 14 11 13 16 16 14 12 14 14
8 6 2 3 4 4 1 12 15 5 3 16 10 11 13 14 10 8 18 17 17 18 15 13 13 13 13 14 7 9 16 13 7 13 9 9 4 7 9 15 15 14 14 15
4 1 3 3 4 1 5 11 15 3 6 13 9 10 12 9 8 17 17 16 14 15 14 12 11 10 12 13 11 11 14 13 11 8 7 6 9 13 13 9 16 17 16 16
3 1 2 3 3 4 7 4 4 4 7 6 8 8 10 10 16 16 15 15 15 15 12 12 10 10 11 10 10 11 5 2 3 2 13 10 10 12 16 18 10 16 19 18
2 5 3 6 4 3 4 1 4 7 3 4 9 12 11 14 13 17 16 16 13 14 12 11 11 10 10 11 9 6 6 6 7 8 13 11 10 11 18 22 14 8 13 15
4 4 3 2 1 3 4 2 5 3 5 6 9 11 13 14 9 16 13 14 14 15 14 12 12 13 13 12 11 10 9 8 11 11 9 12 14 13 14 11 13 12 12 10
6 2 3 6 4 4 4 1 6 4 5 6 9 10 11 13 10 11 11 14 14 14 13 12 12 11 12 13 14 14 12 11 13 13 10 12 12 14 15 13 8 8 10 11
4 5 3 4 3 3 3 2 6 5 4 5 7 12 12 13 13 11 10 11 13 13 14 12 13 12 13 14 15 15 14 13 12 13 9 9 10 10 10 12 15 25 17 21
Wind_Direction
309 2 320 315 318 307 313 276 269 276 289 294 287 289 301 311 302 282 230 242 231 237 224 232 232 216 230 160 149 147 152 173 162 190 172 164 179 167 182 170 173 177 174 182
344 295 298 303 298 306 310 298 254 259 277 308 319 301 308 294 284 293 297 223 217 222 214 221 233 229 203 201 156 167 167 174 180 184 194 177 162 179 189 173 173 177 184 185
298 280 289 313 305 298 295 299 303 313 321 280 294 292 314 309 311 314 302 290 142 209 207 192 156 219 227 212 170 166 174 179 178 174 181 176 147 186 185 186 177 188 187 186
277 299 324 301 304 327 314 318 321 316 308 285 287 302 310 299 299 300 299 304 250 267 313 319 292 259 239 217 201 164 166 174 178 169 175 181 188 186 200 189 179 188 189 188
311 344 320 325 313 318 304 341 341 320 315 326 282 254 262 292 284 285 293 286 259 214 228 253 265 247 242 205 179 185 159 170 174 179 182 183 189 196 183 193 170 186 189 189
336 307 335 330 340 322 311 5 329 302 273 259 257 251 267 252 264 277 283 296 302 242 232 224 234 244 246 207 205 167 175 169 174 176 187 189 190 192 190 194 187 186 185 184
332 330 335 26 340 317 315 50 328 326 3 272 270 245 229 252 231 259 283 286 288 271 251 233 215 222 245 225 199 205 178 183 178 182 184 196 199 197 199 194 193 182 175 183
351 324 337 346 305 293 340 270 183 292 293 295 292 264 239 250 286 10 340 277 293 307 291 251 224 215 215 228 204 197 198 188 185 183 193 196 207 203 198 200 190 185 179 173
327 278 316 302 351 322 351 349 306 172 248 271 253 285 287 19 7 360 347 350 353 350 294 268 224 206 206 218 227 186 198 193 182 190 194 197 204 211 207 198 196 175 177 182
278 295 293 309 313 82 295 300 320 308 300 301 302 299 5 1 359 353 347 331 343 347 334 344 326 68 41 292 224 201 195 196 189 193 198 200 202 207 212 190 192 186 181 183
318 215 287 307 321 356 358 6 355 271 143 264 328 315 144 7 17 295 331 345 344 320 338 333 3 38 19 16 26 256 198 194 193 190 193 199 203 209 205 203 196 190 178 179
312 269 282 290 294 181 218 322 328 326 351 287 235 308 39 32 4 344 337 343 338 325 328 323 320 22 23 28 1 5 352 202 194 190 195 197 200 206 209 204 162 205 186 173
283 293 305 308 17 127 320 312 322 301 214 247 290 335 140 5 10 356 332 340 328 315 319 321 329 8 18 23 11 7 354 345 235 185 192 195 200 191 199 160 150 138 124 98
140 214 211 270 279 298 298 307 309 304 289 332 293 335 341 360 355 341 333 327 315 316 321 325 351 353 11 16 14 7 358 343 358 223 197 203 201 176 163 167 150 138 131 136
157 257 246 265 286 292 315 34 21 6 341 318 324 320 335 346 338 325 316 321 316 314 316 340 353 351 355 348 13 356 356 339 339 358 304 199 188 169 169 168 164 157 175 192
107 276 311 288 289 314 107 32 10 356 348 336 324 331 359 332 326 321 320 319 310 302 306 330 339 346 359 357 345 343 338 338 327 329 338 306 181 169 179 176 173 166 169 171
216 264 301 284 314 312 75 33 353 319 341 338 348 321 326 329 326 323 328 330 322 322 320 318 325 328 341 345 344 332 320 321 319 322 328 333 212 176 173 191 182 171 159 138
202 243 343 290 317 348 101 347 327 316 8 2 331 324 330 326 320 311 345 318 307 309 310 306 307 314 318 317 320 305 307 324 319 317 307 317 225 184 152 173 192 181 152 153
178 110 292 297 282 215 92 346 313 349 129 14 350 335 328 321 310 300 346 321 307 301 296 293 291 300 306 306 301 291 295 314 301 328 318 329 230 179 164 172 166 159 153 148
105 114 179 293 287 286 60 320 316 265 217 11 358 336 328 322 338 317 323 314 316 306 302 302 310 304 298 299 282 279 290 303 297 274 330 343 10 63 139 166 170 172 147 131
321 266 207 274 266 215 346 333 315 65 309 340 342 324 327 327 305 300 300 320 318 318 315 322 313 306 298 291 290 274 281 280 258 212 161 157 84 87 87 98 117 115 122 125
246 301 335 328 275 281 29 16 38 296 292 332 320 311 309 325 331 325 333 336 340 333 338 343 335 326 314 307 292 273 243 53 33 184 131 109 125 114 107 78 72 122 118 120
277 169 207 184 235 114 111 207 303 299 309 318 300 305 332 328 338 340 346 347 355 345 352 354 350 345 349 353 353 356 8 59 61 59 96 130 112 113 112 110 111 98 109 122
348 136 210 226 118 4 126 28 312 335 337 303 316 331 326 329 352 347 360 358 0 1 359 355 360 9 9 1 9 18 24 52 89 82 82 104 103 102 97 104 122 122 108 143
224 357 263 256 98 116 129 49 309 335 326 329 328 325 324 337 347 7 7 9 4 6 2 4 7 11 16 19 25 25 30 55 75 73 70 78 79 82 81 66 60 116 140 139
208 208 173 250 148 184 266 291 301 296 305 321 329 329 335 338 351 1 9 27 11 10 8 16 14 16 21 29 31 30 29 49 65 68 65 68 82 80 86 93 84 51 81 90